| time (UTC) | temp F | wind direction | speed knots | gust knots | rain 1hr in | rain 24hr in | rain mn in | humidity % | barometer mb |
| 20260507040517 | 55 | 293 | 0.9 | 6.1 | 0.02 | 0.24 | 0.01 | 93 | 1006.1 |
| 20260507035517 | 55 | 338 | 2.6 | 7.8 | 0.01 | 0.23 | 0.23 | 93 | 1006.1 |
| 20260507034516 | 56 | 0 | 1.7 | 6.1 | 0.01 | 0.23 | 0.23 | 93 | 1006.0 |
| 20260507033516 | 57 | 293 | 2.6 | 8.7 | 0.00 | 0.22 | 0.22 | 94 | 1006.0 |
| 20260507032516 | 57 | 270 | 1.7 | 6.1 | 0.00 | 0.22 | 0.22 | 94 | 1005.7 |
| 20260507031517 | 58 | 0 | 0.9 | 2.6 | 0.00 | 0.22 | 0.22 | 95 | 1005.4 |
| 20260507030537 | 58 | 0.0 | 4.3 | 0.00 | 0.22 | 0.22 | 95 | 1005.2 | |
| 20260507025517 | 58 | 23 | 0.9 | 2.6 | 0.00 | 0.22 | 0.22 | 95 | 1004.9 |
| 20260507024516 | 58 | 203 | 0.9 | 3.5 | 0.00 | 0.22 | 0.22 | 95 | 1004.9 |
| 20260507023537 | 59 | 203 | 1.7 | 7.8 | 0.00 | 0.22 | 0.22 | 95 | 1005.0 |
| 20260507022537 | 59 | 0.0 | 1.7 | 0.00 | 0.22 | 0.22 | 95 | 1005.1 | |
| 20260507021517 | 58 | 225 | 2.6 | 6.1 | 0.00 | 0.22 | 0.22 | 95 | 1004.9 |
| 20260507020516 | 58 | 0.0 | 1.7 | 0.00 | 0.22 | 0.22 | 95 | 1004.7 | |
| 20260507015517 | 58 | 203 | 0.9 | 3.5 | 0.00 | 0.22 | 0.22 | 95 | 1004.8 |
| 20260507014517 | 58 | 0.0 | 2.6 | 0.00 | 0.22 | 0.22 | 95 | 1004.7 | |
| 20260507013516 | 58 | 158 | 0.9 | 4.3 | 0.00 | 0.22 | 0.22 | 95 | 1004.7 |
| 20260507012517 | 58 | 180 | 0.9 | 7.0 | 0.00 | 0.22 | 0.22 | 95 | 1004.6 |
| 20260507011537 | 58 | 203 | 1.7 | 4.3 | 0.01 | 0.22 | 0.22 | 95 | 1004.7 |
| 20260507010516 | 58 | 203 | 1.7 | 4.3 | 0.01 | 0.22 | 0.22 | 95 | 1004.7 |
| 20260507005517 | 58 | 203 | 1.7 | 7.0 | 0.01 | 0.22 | 0.22 | 95 | 1004.7 |
| 20260507004516 | 58 | 203 | 0.9 | 2.6 | 0.01 | 0.22 | 0.22 | 95 | 1004.8 |
| 20260507003517 | 58 | 225 | 0.9 | 4.3 | 0.01 | 0.22 | 0.22 | 95 | 1004.7 |
| 20260507002516 | 58 | 203 | 0.9 | 4.3 | 0.01 | 0.22 | 0.22 | 95 | 1004.6 |
| 20260507001559 | 58 | 0.0 | 3.5 | 0.00 | 0.21 | 0.21 | 95 | 1004.5 | |
| 20260507000516 | 58 | 225 | 0.9 | 4.3 | 0.00 | 0.21 | 0.21 | 95 | 1004.6 |
| 20260506235517 | 58 | 203 | 1.7 | 3.5 | 0.01 | 0.21 | 0.21 | 95 | 1004.5 |
| 20260506234516 | 58 | 0.0 | 3.5 | 0.04 | 0.21 | 0.21 | 95 | 1004.4 | |
| 20260506233537 | 59 | 203 | 0.9 | 3.5 | 0.04 | 0.21 | 0.21 | 94 | 1004.4 |
| 20260506232516 | 59 | 225 | 0.9 | 2.6 | 0.05 | 0.21 | 0.21 | 94 | 1004.3 |
| 20260506231516 | 59 | 180 | 0.9 | 2.6 | 0.07 | 0.21 | 0.21 | 94 | 1004.4 |
| 20260506230516 | 59 | 225 | 1.7 | 4.3 | 0.08 | 0.21 | 0.21 | 94 | 1004.3 |
| 20260506225537 | 59 | 203 | 0.9 | 4.3 | 0.11 | 0.20 | 0.20 | 94 | 1004.4 |
| 20260506224516 | 59 | 203 | 1.7 | 7.0 | 0.09 | 0.17 | 0.17 | 94 | 1004.4 |
| 20260506223516 | 59 | 203 | 1.7 | 4.3 | 0.09 | 0.17 | 0.17 | 94 | 1004.6 |
| 20260506222516 | 59 | 203 | 1.7 | 4.3 | 0.09 | 0.16 | 0.16 | 94 | 1004.4 |
| 20260506221537 | 59 | 203 | 1.7 | 3.5 | 0.07 | 0.14 | 0.14 | 93 | 1004.6 |
| 20260506220517 | 59 | 203 | 2.6 | 6.1 | 0.06 | 0.13 | 0.13 | 93 | 1004.8 |
| 20260506215516 | 59 | 225 | 1.7 | 5.2 | 0.02 | 0.09 | 0.09 | 93 | 1004.8 |
| 20260506214517 | 59 | 203 | 1.7 | 4.3 | 0.01 | 0.08 | 0.08 | 92 | 1004.9 |
| 20260506213517 | 59 | 225 | 2.6 | 8.7 | 0.01 | 0.08 | 0.08 | 92 | 1004.9 |
| 20260506212516 | 60 | 203 | 1.7 | 4.3 | 0.01 | 0.07 | 0.07 | 92 | 1004.9 |
| 20260506211516 | 60 | 203 | 1.7 | 8.7 | 0.01 | 0.07 | 0.07 | 92 | 1005.1 |
| 20260506210516 | 60 | 203 | 2.6 | 6.1 | 0.02 | 0.07 | 0.07 | 92 | 1005.1 |
| 20260506205517 | 60 | 158 | 0.9 | 3.5 | 0.03 | 0.07 | 0.07 | 92 | 1005.3 |
| 20260506204516 | 60 | 203 | 1.7 | 6.1 | 0.03 | 0.07 | 0.07 | 91 | 1005.4 |
| 20260506203537 | 60 | 180 | 4.3 | 11.3 | 0.03 | 0.07 | 0.07 | 91 | 1005.4 |
| 20260506202517 | 61 | 203 | 2.6 | 8.7 | 0.02 | 0.06 | 0.06 | 91 | 1005.5 |
| 20260506201516 | 61 | 203 | 1.7 | 5.2 | 0.02 | 0.06 | 0.06 | 90 | 1005.5 |
| 20260506200536 | 61 | 225 | 1.7 | 7.0 | 0.02 | 0.05 | 0.05 | 89 | 1005.3 |
| 20260506195516 | 62 | 203 | 3.5 | 7.0 | 0.02 | 0.04 | 0.04 | 88 | 1005.5 |
| 20260506194516 | 62 | 203 | 1.7 | 7.8 | 0.02 | 0.04 | 0.04 | 88 | 1005.5 |
| 20260506193516 | 62 | 180 | 2.6 | 7.8 | 0.03 | 0.04 | 0.04 | 88 | 1005.5 |
| 20260506192517 | 62 | 225 | 2.6 | 7.8 | 0.04 | 0.04 | 0.04 | 88 | 1005.5 |
| 20260506191516 | 62 | 225 | 2.6 | 6.1 | 0.04 | 0.04 | 0.04 | 86 | 1005.6 |
| 20260506190516 | 63 | 180 | 3.5 | 9.6 | 0.03 | 0.03 | 0.03 | 84 | 1005.5 |
| 20260506185517 | 64 | 203 | 0.9 | 3.5 | 0.02 | 0.02 | 0.02 | 84 | 1005.6 |
| 20260506184516 | 65 | 225 | 2.6 | 9.6 | 0.02 | 0.02 | 0.02 | 79 | 1005.8 |
| 20260506183516 | 66 | 203 | 2.6 | 6.1 | 0.01 | 0.01 | 0.01 | 77 | 1006.0 |
| 20260506182517 | 67 | 225 | 2.6 | 7.0 | 0.00 | 0.00 | 0.00 | 73 | 1005.9 |
| 20260506181516 | 68 | 225 | 4.3 | 10.4 | 0.00 | 0.00 | 0.00 | 69 | 1006.2 |
| 20260506180517 | 69 | 225 | 5.2 | 12.2 | 0.00 | 0.00 | 0.00 | 63 | 1006.0 |
| 20260506175517 | 70 | 225 | 7.0 | 18.2 | 0.00 | 0.00 | 0.00 | 60 | 1006.0 |
| 20260506174517 | 71 | 203 | 5.2 | 10.4 | 0.00 | 0.00 | 0.00 | 58 | 1006.0 |
| 20260506173517 | 72 | 203 | 3.5 | 8.7 | 0.00 | 0.00 | 0.00 | 56 | 1005.9 |
| 20260506172537 | 72 | 180 | 4.3 | 9.6 | 0.00 | 0.00 | 0.00 | 56 | 1005.8 |
| 20260506171536 | 73 | 203 | 4.3 | 12.2 | 0.00 | 0.00 | 0.00 | 55 | 1005.9 |
| 20260506170516 | 73 | 225 | 6.1 | 13.0 | 0.00 | 0.00 | 0.00 | 54 | 1006.0 |
| 20260506165517 | 72 | 203 | 4.3 | 9.6 | 0.00 | 0.00 | 0.00 | 55 | 1006.0 |
| 20260506164516 | 72 | 203 | 4.3 | 9.6 | 0.00 | 0.00 | 0.00 | 58 | 1006.2 |
| 20260506163516 | 71 | 203 | 3.5 | 9.6 | 0.00 | 0.00 | 0.00 | 59 | 1006.4 |
| 20260506162517 | 70 | 225 | 4.3 | 12.2 | 0.00 | 0.00 | 0.00 | 59 | 1006.6 |
| 20260506161516 | 70 | 203 | 2.6 | 6.1 | 0.00 | 0.00 | 0.00 | 59 | 1006.7 |
| 20260506160516 | 70 | 203 | 3.5 | 11.3 | 0.00 | 0.00 | 0.00 | 60 | 1006.9 |
| 20260506155516 | 70 | 203 | 3.5 | 7.8 | 0.00 | 0.00 | 0.00 | 61 | 1007.1 |
| 20260506154517 | 70 | 225 | 2.6 | 6.1 | 0.00 | 0.00 | 0.00 | 63 | 1007.2 |
| 20260506153516 | 69 | 180 | 3.5 | 13.9 | 0.00 | 0.00 | 0.00 | 63 | 1007.3 |
| 20260506152517 | 69 | 225 | 3.5 | 8.7 | 0.00 | 0.00 | 0.00 | 65 | 1007.6 |
| 20260506151517 | 69 | 225 | 3.5 | 8.7 | 0.00 | 0.00 | 0.00 | 65 | 1007.7 |
| 20260506150516 | 69 | 203 | 3.5 | 9.6 | 0.00 | 0.00 | 0.00 | 65 | 1008.0 |
| 20260506145517 | 69 | 158 | 2.6 | 7.8 | 0.00 | 0.00 | 0.00 | 65 | 1007.8 |
| 20260506144516 | 68 | 203 | 3.5 | 8.7 | 0.00 | 0.00 | 0.00 | 66 | 1008.2 |
| 20260506143537 | 68 | 203 | 4.3 | 10.4 | 0.00 | 0.00 | 0.00 | 65 | 1008.0 |
| 20260506142516 | 69 | 203 | 4.3 | 8.7 | 0.00 | 0.00 | 0.00 | 65 | 1007.9 |
| 20260506141557 | 69 | 203 | 1.7 | 6.1 | 0.00 | 0.00 | 0.00 | 66 | 1007.8 |
| 20260506140516 | 69 | 203 | 4.3 | 13.9 | 0.00 | 0.00 | 0.00 | 66 | 1007.7 |
| 20260506135516 | 68 | 225 | 4.3 | 8.7 | 0.00 | 0.00 | 0.00 | 67 | 1007.8 |
| 20260506134517 | 68 | 180 | 3.5 | 10.4 | 0.00 | 0.00 | 0.00 | 67 | 1007.8 |
| 20260506133516 | 67 | 225 | 2.6 | 6.1 | 0.00 | 0.00 | 0.00 | 71 | 1008.0 |
| 20260506132516 | 66 | 203 | 3.5 | 7.8 | 0.00 | 0.00 | 0.00 | 72 | 1008.3 |
| 20260506131516 | 65 | 225 | 3.5 | 7.8 | 0.00 | 0.00 | 0.00 | 73 | 1008.5 |
| 20260506130516 | 65 | 225 | 3.5 | 8.7 | 0.00 | 0.00 | 0.00 | 73 | 1008.6 |
| 20260506125516 | 65 | 203 | 3.5 | 8.7 | 0.00 | 0.00 | 0.00 | 74 | 1008.4 |
| 20260506124537 | 64 | 225 | 5.2 | 9.6 | 0.00 | 0.00 | 0.00 | 74 | 1008.5 |
| 20260506123517 | 64 | 203 | 4.3 | 9.6 | 0.00 | 0.00 | 0.00 | 74 | 1008.4 |
| 20260506122557 | 63 | 203 | 3.5 | 9.6 | 0.00 | 0.00 | 0.00 | 76 | 1008.3 |
| 20260506121536 | 63 | 203 | 3.5 | 7.0 | 0.00 | 0.00 | 0.00 | 76 | 1008.5 |
| 20260506120536 | 63 | 203 | 2.6 | 7.8 | 0.00 | 0.00 | 0.00 | 76 | 1008.5 |
| 20260506115516 | 62 | 203 | 4.3 | 10.4 | 0.00 | 0.00 | 0.00 | 78 | 1008.4 |
| 20260506114517 | 61 | 203 | 1.7 | 5.2 | 0.00 | 0.00 | 0.00 | 79 | 1008.6 |
| 20260506113516 | 61 | 203 | 3.5 | 8.7 | 0.00 | 0.00 | 0.00 | 79 | 1008.7 |
| 20260506112537 | 61 | 225 | 2.6 | 6.1 | 0.00 | 0.00 | 0.00 | 80 | 1008.8 |
| 20260506111517 | 60 | 225 | 2.6 | 6.1 | 0.00 | 0.00 | 0.00 | 80 | 1009.1 |
| 20260506110517 | 60 | 180 | 2.6 | 6.1 | 0.00 | 0.00 | 0.00 | 80 | 1008.8 |
| 20260506105516 | 60 | 203 | 2.6 | 9.6 | 0.00 | 0.00 | 0.00 | 81 | 1008.7 |
| 20260506104516 | 59 | 203 | 2.6 | 7.0 | 0.00 | 0.00 | 0.00 | 82 | 1008.8 |
| 20260506103516 | 59 | 225 | 2.6 | 9.6 | 0.00 | 0.00 | 0.00 | 82 | 1008.9 |
| 20260506102516 | 58 | 180 | 2.6 | 6.1 | 0.00 | 0.00 | 0.00 | 82 | 1008.6 |
| 20260506101516 | 58 | 203 | 2.6 | 4.3 | 0.00 | 0.00 | 0.00 | 82 | 1008.7 |
| 20260506100537 | 58 | 180 | 1.7 | 3.5 | 0.00 | 0.00 | 0.00 | 81 | 1008.7 |
| 20260506095516 | 59 | 203 | 1.7 | 4.3 | 0.00 | 0.00 | 0.00 | 80 | 1008.7 |
| 20260506094516 | 59 | 203 | 1.7 | 4.3 | 0.00 | 0.00 | 0.00 | 80 | 1008.7 |
| 20260506093516 | 59 | 203 | 1.7 | 3.5 | 0.00 | 0.00 | 0.00 | 80 | 1008.6 |
| 20260506092516 | 59 | 225 | 2.6 | 9.6 | 0.00 | 0.00 | 0.00 | 79 | 1008.6 |
| 20260506091516 | 59 | 203 | 2.6 | 6.1 | 0.00 | 0.00 | 0.00 | 79 | 1008.6 |
| 20260506090516 | 60 | 203 | 1.7 | 4.3 | 0.00 | 0.00 | 0.00 | 78 | 1008.6 |
| 20260506085517 | 60 | 203 | 2.6 | 7.0 | 0.00 | 0.00 | 0.00 | 77 | 1008.6 |
| 20260506084516 | 60 | 203 | 2.6 | 6.1 | 0.00 | 0.00 | 0.00 | 77 | 1008.6 |
| 20260506083521 | 60 | 203 | 3.5 | 7.8 | 0.00 | 0.00 | 0.00 | 76 | 1008.7 |
| 20260506082516 | 60 | 225 | 3.5 | 9.6 | 0.00 | 0.00 | 0.00 | 76 | 1008.6 |
| 20260506081516 | 61 | 203 | 4.3 | 11.3 | 0.00 | 0.00 | 0.00 | 75 | 1008.7 |
| 20260506080517 | 61 | 203 | 3.5 | 9.6 | 0.00 | 0.00 | 0.00 | 75 | 1008.6 |
| 20260506072517 | 62 | 203 | 2.6 | 6.1 | 0.00 | 0.00 | 0.00 | 73 | 1008.6 |
| 20260506071517 | 62 | 203 | 2.6 | 6.1 | 0.00 | 0.00 | 0.00 | 72 | 1008.5 |
| 20260506070516 | 62 | 225 | 1.7 | 4.3 | 0.00 | 0.00 | 0.00 | 71 | 1008.4 |
| 20260506061518 | 63 | 225 | 3.5 | 8.7 | 0.00 | 0.00 | 0.00 | 67 | 1008.2 |
| 20260506060517 | 63 | 203 | 4.3 | 8.7 | 0.00 | 0.00 | 0.00 | 66 | 1008.2 |
| 20260506050517 | 64 | 203 | 4.3 | 14.8 | 0.00 | 0.00 | 0.00 | 64 | 1008.5 |
| 20260506044516 | 63 | 203 | 2.6 | 10.4 | 0.00 | 0.00 | 0.00 | 65 | 1008.4 |
| 20260506043516 | 63 | 225 | 3.5 | 10.4 | 0.00 | 0.00 | 0.00 | 65 | 1008.5 |
| 20260506042516 | 63 | 203 | 2.6 | 5.2 | 0.00 | 0.00 | 0.00 | 65 | 1008.5 |
| 20260506041536 | 63 | 180 | 3.5 | 7.8 | 0.00 | 0.00 | 0.00 | 64 | 1008.5 |